TimeEST,TemperatureF,Dew PointF,Humidity,Sea Level PressureIn,VisibilityMPH,Wind Direction,Wind SpeedMPH,Gust SpeedMPH,PrecipitationIn,Events,Conditions,WindDirDegrees,DateUTC
12:52 AM,30.9,17.1,57,30.01,10.0,NNW,4.6,-,N/A,,Clear,340,2013-03-04 05:52:00
1:52 AM,30.0,16.0,56,30.03,10.0,NW,4.6,-,N/A,,Clear,320,2013-03-04 06:52:00
2:52 AM,27.0,16.0,63,30.04,10.0,WNW,4.6,-,N/A,,Clear,300,2013-03-04 07:52:00
3:52 AM,27.0,16.0,63,30.05,10.0,NW,4.6,-,N/A,,Clear,310,2013-03-04 08:52:00
4:52 AM,27.0,16.0,63,30.07,10.0,West,3.5,-,N/A,,Clear,280,2013-03-04 09:52:00
6:52 AM,25.0,16.0,69,30.12,10.0,Calm,Calm,-,N/A,,Clear,0,2013-03-04 11:52:00
7:52 AM,28.9,18.0,64,30.14,10.0,NW,5.8,-,N/A,,Clear,310,2013-03-04 12:52:00
8:52 AM,35.1,18.0,50,30.16,10.0,NNW,10.4,-,N/A,,Clear,330,2013-03-04 13:52:00
9:52 AM,39.0,12.9,34,30.15,10.0,NW,13.8,21.9,N/A,,Clear,320,2013-03-04 14:52:00
10:52 AM,42.1,14.0,32,30.14,10.0,NW,8.1,19.6,N/A,,Clear,320,2013-03-04 15:52:00
11:52 AM,45.0,12.9,27,30.12,10.0,WNW,10.4,-,N/A,,Clear,290,2013-03-04 16:52:00
12:52 PM,46.9,12.9,25,30.10,10.0,NNW,11.5,17.3,N/A,,Clear,330,2013-03-04 17:52:00
1:52 PM,50.0,14.0,24,30.08,10.0,West,10.4,17.3,N/A,,Clear,270,2013-03-04 18:52:00
2:52 PM,51.1,14.0,23,30.06,10.0,WNW,11.5,-,N/A,,Clear,300,2013-03-04 19:52:00
3:52 PM,52.0,14.0,22,30.06,10.0,West,9.2,-,N/A,,Clear,270,2013-03-04 20:52:00
4:52 PM,52.0,12.9,21,30.06,10.0,NW,8.1,-,N/A,,Clear,320,2013-03-04 21:52:00
5:52 PM,48.9,15.1,26,30.07,10.0,WNW,3.5,-,N/A,,Clear,290,2013-03-04 22:52:00
6:52 PM,43.0,19.0,38,30.08,10.0,Calm,Calm,-,N/A,,Clear,0,2013-03-04 23:52:00
7:52 PM,37.9,23.0,55,30.10,10.0,Calm,Calm,-,N/A,,Clear,0,2013-03-05 00:52:00
8:52 PM,35.1,24.1,64,30.10,10.0,Calm,Calm,-,N/A,,Clear,0,2013-03-05 01:52:00
9:52 PM,33.1,25.0,72,30.11,10.0,Calm,Calm,-,N/A,,Clear,0,2013-03-05 02:52:00
10:52 PM,32.0,25.0,75,30.11,10.0,Calm,Calm,-,N/A,,Clear,0,2013-03-05 03:52:00
11:52 PM,36.0,24.1,62,30.10,10.0,Calm,Calm,-,N/A,,Clear,0,2013-03-05 04:52:00